Location: Dentlein
(49.1477°N, 10.4231°E)
Time: 22:50:15
(UTC+00:00)

Cosmos 1242 Rocket - Pass Details

Date: 23 May 2024
Orbit: 322 x 337 km, 81.1° (Epoch: 14 June)

Event Time Altitude Azimuth Distance (km) Brightness Sun altitude
Exits shadow 01:14:24 28° 156° (SSE) 726 3.1 -15.3°
Maximum altitude 01:15:36 47° 98° (E) 494 2.7 -15.2°
Drops below altitude 10° 01:18:28 10° 23° (NNE) 1,367 6.2 -15.0°
Sets 01:20:30 0° 17° (NNE) 2,223 7.6 -14.8°
